Погода в Ряжске

Погода в Ряжске : погода сейчас, прогноз погоды и архив. Всё, что Вы хотите узнать о погоде в Ряжске!

Хотите узнать прогноз погоды в Ряжске? Тогда Вам сюда: Погода в Ряжске

Поиск расширенной информации на нашем сайте:

Полезная информация:

Другие новости

Новости СМИ2

Главная страница сайта

Новости сайта

03.07.2017

Напоминаем, что на нашем специализированном сайте Метеоцентр.Азия вы можете получить высокодетализированные автоматические прогнозы погоды по пунктам России, СНГ и мира в авиационном формате (включающие направление и скорость ветра, видимость, явления погоды, количество и форму облачности, нижнюю и верхнюю границу облачности).

Рекомендуем:

Погода в Ряжске - сегодня

Время (UTC), дата Ветер
(°,м/с) 
Видим.   Явления Облачность Т
(°С)
Тd
(°С)
f(%) Тe
(°С)
Pmin
(гПа)
dP
(гПа)
Po
(мм)
O2
(г/м3)
Тmin Tmax R s Состояние
почвы
09 15.09.19 270 (З) 10 км    8/6 1000 м кучево-дожд., средняя 
[Cb calv|Ac trans]
+14.7 +3.8 48 +15  1016.7  -0.6  751  287           
12 15.09.19 280 (З) 10 км    8/6 1000 м кучево-дожд., верхняя 
[Cb calv|Ci sp]
+16.4 -0.7 31 +16  1015.5  -1  750  285           
15 15.09.19 260 (З) 2{10}  10 км    4/0 средняя, верхняя 
[Ac trans|Ci sp]
+14.4 -0.4 36 +15  1014.1  -1.5  749  287    +16.6  0.3     
18 15.09.19 200 (Ю) н/о    6/0 верхняя 
[Ci sp]
+11.9 +0.6 46 +13  1012.9  -1.4  748  289           
21 15.09.19 250 (З) н/о    10/4 600 м кучево-дожд., средняя 
[Cb calv|Ac As]
+11.8 +3.8 58 +12  1011.2  -1.6  747  288           
00 16.09.19 230 (ЮЗ) н/о    8/4 600 м кучево-дожд., средняя 
[Cb calv|Ac trans]
+11.7 +4.8 63 +12  1008.2  -3  745  287           
03 16.09.19 210 (ЮЗ) 10 км  слаб. ливневой дождь  10/3 600 м кучево-дожд., средняя 
[Cb calv|Ac As]
+9.4 +7.4 87 +9  1005.9  -2.4  743  288  +9.3       
06 16.09.19 190 (Ю) 10 км  в посл. час дождь{ливн. осадки}  10/10 600 м 
[Sc]
+10.1 +7.7 85 +10  1003.6  -2.2  741  287  +9.1         
09 16.09.19 230 (ЮЗ) 10 км    10/10 600 м 
[Sc]
+12.8 +7 68 +13  1001.8  -1.6  740  284           
12 16.09.19 250 (З) 4-11{11}  10 км    9/9 1000 м 
[Cu med, cong]
+15.9 +6 52 +16  1001.2  -0.5  740  281           
15 16.09.19 250 (З) 3{12}  10 км    3/3 1000 м 
[Cu hum]
+15.2 +6.2 55 +15  1001.4  0.2  740  281    +16.7     
18 16.09.19 250 (З) н/о    3/0 верхняя 
[Ci sp]
+12.8 +5.4 61 +13  1002.3  0.8  740  284           
21 16.09.19 230 (ЮЗ) н/о    3/0 верхняя 
[Ci sp]
+9.5 +6.2 80 +11  1002.1  -0.4  740  287           
00 17.09.19 210 (ЮЗ) н/о    3/0 верхняя 
[Ci sp]
+7.9 +4.7 80 +9  1001.3  -0.9  740  289           
03 17.09.19 230 (ЮЗ) 10 км    9/0 средняя 
[Ac trans]
+8.7 +5.1 78 +10  1000.9  -0.3  739  288  +7.8        сухая 
06 17.09.19 250 (З) 10 км    3/0 средняя 
[Ac trans]
+12.4 +5.8 64 +12  1000.9  0.1  739  284           
09 17.09.19 260 (З) 4-11{11}  10 км    8/8 1000 м 
[Cu med, cong]
+14.7 +3.2 46 +15  1000  -0.8  739  282           
12 17.09.19 270 (З) 4-11{12}  10 км    6/6 1000 м 
[Cu med, cong]
+16.9 -0 32 +17  999.6  -0.2  739  280           
15 17.09.19 280 (З) 2{11}  10 км    3/3 1000 м 
[Cu hum]
+14.1 -0.5 37 +15  1000.3  0.5  739  283    +17.2       
18 17.09.19 230 (ЮЗ) н/о    4/0 средняя 
[Ac trans]
+8.8 +2.8 66 +10  1002  1.5  740  288           
21 17.09.19 190 (Ю) н/о    3/0 средняя, верхняя 
[Ac trans|Ci sp]
+5.5 +2.6 82 +6  1002.2  740  292           
00 18.09.19 190 (Ю) 4000 м  дымка  6/0 верхняя 
[Ci sp]
+3.3 +2 91 +4  1002  -0.4  740  294           
03 18.09.19 170 (Ю) 4000 м  дымка  9/0 верхняя 
[Ci sp]
+3.2 +2 92 +4  1001.7  -0.3  740  294  +2.6        сухая 
06 18.09.19 160 (Ю) 10 км    9/3 600 м кучево-дожд., средняя, верхняя 
[Cb calv|Ac trans|Ci sp]
+8.3 +3.5 72 +9  1001.1  -0.3  739  289           
09 18.09.19 230 (ЮЗ) 10 км    9/4 600 м кучево-дожд., средняя, верхняя 
[Cb calv|Ac trans|Ci sp]
+13.8 +2.2 45 +14  999.7  -1.1  739  283           
Время (UTC), дата Ветер
(°,м/с) 
Видим.   Явления Облачность Т
(°С)
Тd
(°С)
f(%) Тe
(°С)
Pmin
(гПа)
dP
(гПа)
Po
(мм)
O2
(г/м3)
Тmin Tmax R s Состояние
почвы

Для получения пояснительной информации подведите курсор к названию столбца.

ПОГОДА в Ряжске - архив

Всё, что Вы хотите узнать о погоде в Ряжске - удобно и подробно!

Выберите нужную дату (начиная с 1 января 2018* года) и нажмите кнопку "Найти".
Будут отображены архивные сводки погоды по пункту Ряжск, начиная с указанной даты.


Отображать данные в формате CSV (для использования в таблицах Excel)


Внимание! Наш архив погоды предназначен исключительно для личного некоммерческого использования в познавательных целях. Если Вам необходимы официальные справки о состоянии погоды (для производственных, юридических, коммерческих и т.п. целей), обращайтесь в органы Росгидромета.

*Примечание: данная дата относится к архиву по метеостанциям СССР (Россия, СНГ, Балтия).
Архив по метеостанциям Зарубежной Европы и Азии (кроме Китая) хранится 10 дней, по другим регионам земного шара (Китай, Африка, Америка, Австралия, Океания) - 1 день.

Ряжск - район местоположения метеостанции


Название, широта, долгота, высота метеостанции:
Ряжск 53.7°ш. 40.1°д. 127 м над ур. моря [Российская Федерация]

Дополнительная информация

В oтличие oт бoльшинства пoгoдных сайтoв мы публикуем пoдрoбную метеoинфoрмацию в детальнoм прoфессиoнальнoм фoрмате.

Характеристики температуры и влажнoсти вoздуха измеряются на высoте 2 м в тени вдали oт зданий и деревьев.
Скoрoсть ветра измеряется на высoте 10 м (на урoвне рoста челoвека скoрoсть ветра ниже в 1.5-2 раза). Если метеoстанция нахoдится в гoрoде или в лесу, тo скoрoсть ветра занижена на 2-4 м/с пo сравнению с oткрытым местoм. Скoрoсть ветра над акватoриями крупных рек и oзёр, а также на вершинах хoлмoв на 2-5 м/с выше, чем в oбычных услoвиях.
Атмoсфернoе давление в разных тoчках местнoсти мoжет значительнo oтличаться oт давления на метеoстанции, в зависимoсти oт услoвий рельефа (при пoдъёме на 10 м давление пoнижается примернo на 1 мм рт.ст.).